Location: Ostrava
(49.8330°N, 18.2830°E)
Time: 15:56:23
(UTC+01:00)

Explorer 7 - Visible Passes

Search period start: 13 December 2017 00:00
Search period end: 23 December 2017 00:00
Orbit: 486 x 682 km, 50.3° (Epoch: 13 December)

Date Brightness Start Highest point End Pass type
(mag) Time Alt. Az. Time Alt. Az. Time Alt. Az.
13 Dec 10.1 03:34:34 12° E 03:34:34 12° E 03:34:56 10° E visible
13 Dec 6.7 05:10:55 76° W 05:11:15 88° N 05:15:45 10° E visible
13 Dec 7.1 06:47:36 10° W 06:51:57 86° S 06:56:36 10° ESE visible
14 Dec 10.0 03:40:00 13° E 03:40:00 13° E 03:40:34 10° ENE visible
14 Dec 6.7 05:16:21 68° WNW 05:16:52 83° N 05:21:22 10° E visible
14 Dec 7.2 06:53:11 10° WNW 06:57:32 73° SSW 07:02:09 10° ESE visible
15 Dec 9.8 03:45:24 15° E 03:45:24 15° E 03:46:10 10° ENE visible
15 Dec 6.8 05:21:45 61° WNW 05:22:29 84° N 05:26:59 10° E visible
16 Dec 9.7 03:50:47 16° E 03:50:47 16° E 03:51:46 10° E visible
16 Dec 6.8 05:27:09 54° W 05:28:05 89° N 05:32:36 10° E visible
17 Dec 9.6 03:56:10 18° E 03:56:10 18° E 03:57:22 10° E visible
17 Dec 6.9 05:32:32 48° W 05:33:40 81° SSW 05:38:11 10° ESE visible
18 Dec 9.4 04:01:33 20° E 04:01:33 20° E 04:02:59 10° E visible
18 Dec 7.0 05:37:55 42° W 05:39:14 67° SSW 05:43:42 10° ESE visible
19 Dec 9.3 04:06:58 22° E 04:06:58 22° E 04:08:36 10° E visible
19 Dec 7.3 05:43:19 35° WSW 05:44:45 52° SSW 05:49:07 10° SE visible
20 Dec 9.1 04:12:24 24° ESE 04:12:24 24° ESE 04:14:12 10° ESE visible
20 Dec 7.7 05:48:45 29° WSW 05:50:14 38° SSW 05:54:24 10° SE visible
21 Dec 9.0 04:17:52 25° ESE 04:17:52 25° ESE 04:19:46 10° ESE visible
21 Dec 8.2 05:54:14 23° WSW 05:55:39 28° SW 05:59:27 10° SSE visible
22 Dec 9.0 04:23:23 24° SE 04:23:23 24° SE 04:25:14 10° ESE visible
22 Dec 8.6 05:59:45 17° WSW 06:01:02 19° SW 06:04:12 10° S visible
